RH
42 44 50 53 56 57 56 42 42 45 48 49 47 37 20 10 10 12 14 16 18 20 24 23 26 32 54 49 60 62 53 39 50 48 54 56 49 29 23 18 16 15 14
42 46 49 56 58 58 59 51 44 46 49 52 51 45 28 12 11 12 14 18 18 22 25 28 35 33 52 65 66 76 80 76 66 48 54 44 39 56 46 32 24 22 20
44 42 49 63 67 63 63 60 48 47 50 52 54 50 37 16 11 12 14 16 20 24 25 27 32 36 55 60 70 87 88 93 93 91 87 77 68 57 48 69 66 49 29
35 40 45 54 62 66 67 65 56 50 51 53 55 54 45 22 11 12 14 19 25 22 24 27 28 31 32 32 38 78 91 94 89 90 94 93 92 90 86 76 56 73 60
34 36 40 52 64 75 74 70 64 57 55 55 56 56 50 31 12 12 15 21 36 34 27 32 31 32 34 34 38 41 53 83 93 95 95 95 91 91 90 91 94 87 75
36 36 39 44 56 71 76 75 72 65 59 58 58 58 54 38 15 12 14 17 23 28 30 30 25 35 38 39 41 47 52 57 72 94 93 95 89 94 94 98 99 98 98
38 39 40 42 46 52 70 78 77 74 66 62 60 59 57 43 18 13 16 17 20 23 23 25 25 40 40 46 47 63 92 98 99 99 94 96 97 97 99 99 99 100 95
39 40 44 43 45 51 64 75 82 82 74 65 61 60 58 47 20 15 18 18 19 22 26 22 25 38 48 69 63 79 94 90 94 98 99 94 94 99 99 92 94 91 83
40 43 48 49 50 53 56 60 73 86 83 72 66 62 60 50 24 16 19 20 20 21 27 24 31 38 54 92 94 100 100 100 99 100 100 100 100 99 97 97 93 97 91
46 48 50 50 51 52 55 62 73 88 90 77 78 78 60 52 24 16 21 22 23 26 32 35 44 67 77 97 100 100 99 99 98 100 99 92 97 96 96 96 94 94 92
48 52 52 53 54 53 58 67 82 93 95 81 93 96 60 49 22 17 21 24 24 25 34 40 60 88 95 100 100 100 100 100 100 74 71 91 88 88 84 93 96 98 96
42 42 47 54 56 56 62 75 87 95 98 95 99 98 59 48 22 19 23 24 24 26 34 48 72 75 89 100 99 99 100 99 64 65 74 65 71 81 82 95 100 100 96
48 50 44 51 59 61 68 81 88 96 94 98 99 94 61 43 20 20 24 24 24 26 28 33 65 92 100 100 100 100 100 71 62 74 72 78 88 93 87 78 71 92 100
49 54 53 49 59 65 71 82 86 94 84 99 94 96 66 38 20 22 23 24 24 24 27 37 55 99 100 100 100 87 81 76 76 79 76 78 86 93 97 100 100 100 100
55 55 61 57 59 68 73 78 81 85 75 77 98 85 66 40 21 25 26 23 25 24 39 68 91 94 99 100 99 90 89 85 90 92 100 100 100 100 99 100 100 100 100
50 57 61 67 69 72 77 75 74 71 69 87 97 83 97 44 27 27 26 24 26 26 62 82 87 96 100 100 95 85 85 88 96 100 100 100 97 99 100 98 100 100 100
52 55 64 66 71 77 78 76 74 72 78 97 95 98 85 26 29 30 30 26 26 32 69 77 92 100 100 86 78 76 78 88 97 96 94 92 92 91 96 98 96 99 98
58 58 58 69 70 76 80 78 77 81 90 95 98 98 61 27 29 31 33 44 37 44 42 58 76 94 79 75 76 77 81 82 84 89 91 91 93 96 96 96 98 99 96
67 66 64 66 74 76 79 79 83 94 94 97 97 95 37 26 32 37 40 40 37 40 33 46 51 68 70 74 76 79 80 81 85 88 89 91 95 100 97 98 97 99 99
82 74 74 71 73 78 80 79 86 96 97 97 96 77 90 35 37 35 36 38 34 36 35 35 45 65 67 73 75 78 82 85 86 89 91 95 98 99 97 96 96 97 96
94 88 82 78 74 79 81 80 82 92 99 98 96 95 93 42 32 34 36 35 32 33 35 34 48 64 68 73 76 81 84 87 90 93 95 96 97 97 97 96 96 97 97
99 94 89 89 81 82 81 84 82 81 89 100 98 96 72 34 35 35 35 34 32 36 36 36 51 63 67 74 78 82 85 90 94 98 99 97 98 99 97 96 95 96 96
99 100 93 90 91 86 90 86 90 83 79 91 100 93 56 39 40 33 34 34 35 35 37 38 53 63 69 77 81 83 88 91 97 100 98 96 96 97 96 95 96 98 98
98 98 98 93 94 89 92 88 86 85 86 97 88 70 48 38 36 34 34 36 36 36 38 39 56 65 72 79 83 85 90 92 96 98 98 96 93 94 97 98 97 96 97
97 97 97 97 96 92 96 96 92 88 82 98 97 78 53 39 38 37 38 42 37 38 38 40 61 66 74 81 83 87 90 94 96 97 96 97 97 97 97 97 97 96 96
99 99 97 98 97 96 96 99 99 95 86 95 98 90 61 61 40 44 77 42 40 40 39 45 65 68 77 82 84 88 91 94 99 97 97 97 97 97 98 99 98 98 98
Wind_Speed
22 23 24 25 25 25 24 22 21 19 18 17 16 16 16 15 14 13 12 12 11 10 10 9 10 10 10 10 10 10 8 8 8 10 13 14 13 17 17 16 15 15 14
24 25 26 27 28 28 27 25 23 21 19 18 17 17 17 16 14 13 12 12 11 11 11 11 10 9 8 10 10 10 11 10 11 12 12 15 14 13 15 15 14 13 14
25 25 26 28 29 30 29 26 24 23 21 20 18 17 17 16 15 14 13 12 11 11 11 11 11 11 9 9 9 11 11 11 13 14 15 16 16 17 17 16 16 16 13
22 24 26 27 29 29 29 28 28 26 24 22 20 19 18 17 16 15 14 13 12 11 12 12 12 12 13 13 11 9 10 12 11 11 11 11 13 15 17 19 19 19 20
20 23 25 26 27 29 31 31 31 29 26 24 22 21 20 18 17 16 14 14 14 13 12 13 14 15 14 14 13 13 13 13 14 15 14 15 12 11 15 16 17 19 16
22 24 24 25 26 29 32 33 34 31 29 26 25 22 21 19 18 17 16 15 15 16 15 14 15 17 16 15 15 14 15 16 16 15 16 15 17 12 15 16 19 17 17
26 28 28 27 27 29 31 34 37 35 32 29 27 24 22 19 19 18 18 16 16 16 17 16 17 16 18 16 15 12 11 13 15 17 17 14 17 17 18 19 19 19 21
30 31 31 29 28 28 30 34 36 37 34 31 28 25 22 20 20 19 18 18 17 18 18 17 18 18 16 17 17 13 14 15 14 15 17 19 19 20 18 19 22 25 25
32 31 28 27 27 28 30 33 34 38 37 34 30 25 22 21 20 20 19 19 19 18 17 18 18 18 17 15 17 17 15 14 14 14 15 17 18 17 16 20 23 22 25
27 27 27 27 28 29 30 31 32 35 37 34 29 26 22 21 21 19 19 19 19 18 17 17 17 17 16 13 15 16 17 17 17 19 21 19 17 17 17 17 19 21 22
30 29 29 28 29 30 29 29 30 32 33 33 30 24 23 21 21 20 19 19 18 19 18 17 14 16 17 15 15 17 20 18 20 22 19 17 18 17 16 14 16 18 22
31 32 32 31 31 29 27 26 28 29 30 32 26 24 25 21 21 20 19 18 18 19 19 18 17 19 17 17 19 20 18 19 20 18 19 18 17 18 19 18 17 19 21
35 33 31 30 28 26 24 23 26 26 28 30 25 23 23 21 20 18 18 18 19 18 20 20 18 19 19 20 19 14 17 20 17 17 18 18 18 19 20 22 22 20 20
36 35 31 28 26 24 23 22 26 25 26 26 24 24 20 19 21 18 17 18 17 18 20 19 18 17 17 19 17 16 15 15 15 18 19 19 20 20 20 19 20 21 24
35 33 30 26 23 23 22 21 24 23 25 26 26 19 19 21 19 17 17 16 16 18 18 18 18 20 19 16 16 16 16 15 17 18 18 19 21 21 21 20 21 23 26
36 32 30 27 24 21 21 21 23 24 27 27 20 23 20 19 20 19 16 17 17 18 17 19 21 19 19 17 18 17 16 17 18 18 20 21 23 23 23 23 23 24 27
37 34 32 30 25 23 23 24 24 24 26 27 25 23 20 20 21 20 18 18 20 18 19 20 21 21 20 20 19 18 18 17 17 20 21 22 22 23 23 24 24 24 27
39 35 34 30 28 25 26 26 25 27 27 26 23 21 20 21 21 20 19 18 20 17 20 21 22 21 21 20 19 19 19 18 19 21 22 22 22 23 25 25 25 26 27
40 38 36 31 29 27 26 26 28 29 28 25 22 21 20 21 21 21 20 22 22 21 20 21 22 21 19 19 19 19 19 19 20 21 21 22 22 22 24 26 28 28 27
37 36 35 31 32 31 29 30 29 29 27 25 24 22 20 21 24 24 23 23 22 22 21 22 21 20 19 19 19 19 19 19 20 20 21 22 23 24 25 27 29 31 31
36 35 31 32 30 34 33 34 32 29 27 27 26 22 20 23 22 23 22 22 21 20 21 21 20 19 18 19 18 18 18 19 20 21 22 23 24 26 26 29 31 32 33
34 33 32 33 32 33 34 35 35 31 28 27 27 21 23 22 23 23 22 21 20 20 20 19 19 18 18 18 17 18 19 19 20 21 23 24 26 28 30 32 34 35 36
31 31 31 31 31 31 33 35 34 34 30 28 27 27 27 24 24 23 21 20 19 20 19 19 18 18 17 17 17 17 19 19 20 21 23 25 27 29 31 34 36 37 37
32 31 29 29 29 30 32 34 35 34 32 29 26 26 26 23 23 22 20 19 19 19 19 19 18 17 16 16 16 17 18 19 20 21 20 24 27 31 33 34 33 31 30
31 31 31 29 28 28 29 31 33 34 33 28 25 25 24 23 22 21 19 18 18 19 18 18 17 16 15 15 15 16 18 18 19 18 20 23 27 30 30 29 29 28 26
33 32 30 29 28 27 27 28 30 32 31 28 25 22 24 23 21 20 18 19 18 19 18 17 15 14 14 14 14 16 17 17 15 15 18 22 25 27 26 26 25 25 25
Wind_Direction
273 275 267 264 263 264 265 268 270 275 283 292 302 310 312 311 310 309 311 314 319 322 323 325 330 336 332 331 333 333 332 327 314 314 315 320 337 334 340 342 337 334 328
275 276 272 263 260 261 261 262 265 269 274 283 293 302 306 306 303 301 301 304 311 315 318 323 326 329 333 329 331 327 326 328 322 317 324 323 332 338 337 339 341 340 333
276 276 271 264 258 259 260 259 262 265 269 276 283 291 296 297 294 290 290 292 296 302 307 313 316 321 321 318 326 322 320 319 323 326 324 329 330 334 337 339 345 337 336
285 283 276 270 266 261 258 257 259 263 266 270 276 282 288 291 290 287 285 287 288 291 296 300 302 304 306 308 311 309 312 311 298 296 303 315 323 336 337 329 335 338 340
298 296 293 282 272 265 259 256 256 259 262 265 270 277 283 287 286 282 280 283 286 286 291 296 302 301 302 302 302 298 299 297 312 316 319 310 326 330 326 329 321 318 326
301 304 299 291 281 269 264 257 256 257 259 261 266 270 275 281 281 277 277 278 280 285 289 292 297 300 300 302 299 300 300 301 297 298 300 304 312 316 304 303 313 323 321
302 300 298 294 287 282 273 262 256 256 257 259 262 266 272 278 280 276 276 277 278 281 286 293 298 294 297 298 295 300 307 301 301 303 302 302 295 297 304 306 311 306 296
298 299 294 295 292 286 277 271 262 257 256 257 259 264 270 278 279 274 274 278 279 281 285 292 293 292 292 291 295 298 285 281 282 282 280 285 281 285 289 293 293 297 302
306 303 295 293 292 288 282 278 270 257 253 253 256 260 267 274 277 273 272 275 278 282 284 288 289 288 285 282 292 294 301 298 295 294 287 289 293 291 286 286 286 293 295
309 302 297 293 292 291 289 282 275 264 254 251 251 258 263 270 272 268 267 270 275 281 284 288 291 292 294 288 292 293 295 298 295 296 295 296 291 282 282 279 286 287 291
310 305 300 296 294 293 288 279 269 261 252 246 248 255 262 268 270 267 263 267 272 276 279 285 287 280 285 285 288 285 287 295 291 296 300 296 290 289 290 280 273 270 276
313 309 305 300 296 292 285 275 264 257 245 240 244 252 258 264 267 265 265 268 273 274 279 284 282 281 287 284 285 283 283 285 296 297 292 295 296 289 287 283 281 279 274
323 318 313 305 300 293 283 267 260 253 240 240 244 250 259 267 269 263 264 269 272 277 282 282 276 282 281 280 282 286 281 291 292 287 291 293 292 290 290 292 292 291 286
320 318 315 306 299 292 282 264 261 251 235 243 245 252 257 267 267 263 265 265 271 279 281 282 285 283 284 283 284 289 289 291 286 284 289 293 291 294 297 297 293 290 288
312 313 310 305 297 288 276 264 260 250 241 243 255 252 253 264 266 263 261 271 276 280 282 287 289 289 289 288 285 286 286 290 288 291 288 288 289 291 294 295 290 289 288
304 305 305 301 293 283 270 264 257 242 242 251 250 249 255 254 261 261 262 271 271 273 272 272 281 284 282 278 277 281 281 280 282 285 287 290 293 296 297 299 295 293 292
299 297 296 295 291 277 264 256 253 252 248 255 251 262 248 257 255 259 259 271 272 270 268 271 273 273 273 278 282 286 287 285 285 290 296 298 299 301 302 301 300 296 295
297 294 288 286 283 275 264 261 255 255 256 255 259 248 245 255 254 255 258 262 264 264 272 270 272 270 276 279 283 285 286 291 295 299 298 299 301 305 306 305 303 300 300
297 293 289 284 277 271 266 260 258 257 257 258 255 239 249 253 251 253 254 255 263 266 273 272 276 275 276 278 282 284 289 295 299 300 301 302 305 304 302 302 304 301 294
294 293 290 284 275 269 262 258 259 261 258 252 244 240 243 247 243 246 250 255 261 266 272 274 275 274 274 276 281 285 291 296 300 300 302 307 309 307 304 306 307 305 303
299 297 290 286 277 270 265 262 261 263 260 252 241 248 245 254 251 251 252 255 260 267 272 274 274 273 272 275 281 286 293 299 302 304 305 308 308 308 310 312 311 309 306
297 293 289 283 281 276 268 264 264 261 260 256 246 244 248 254 251 251 253 256 260 268 272 272 272 271 271 274 280 287 293 299 304 306 306 308 309 310 312 314 314 311 307
296 294 291 286 280 276 269 264 262 261 258 256 252 247 249 248 252 252 252 255 257 268 273 272 271 269 268 273 281 289 295 302 306 305 305 305 307 312 315 315 314 308 303
302 297 294 288 281 274 266 265 263 260 257 253 251 249 248 247 252 251 251 254 257 268 271 272 270 269 267 273 282 289 294 302 306 305 304 304 309 317 316 311 305 305 303
310 299 294 291 284 276 268 264 261 258 254 253 249 250 250 250 248 244 246 256 259 267 269 269 267 264 264 271 282 287 292 299 301 304 307 308 310 311 309 309 312 311 310
312 309 297 291 285 280 272 263 259 258 258 255 253 249 249 250 245 239 248 254 258 267 267 266 264 260 264 274 283 286 296 304 303 306 308 304 307 308 314 314 316 317 315